EHI
19 20 20 22 24 24 22 17 10 8 12 14 12 10 9 9 10 9 8 6 4 3 2 2 2 2 2 2 3 2 1 0 0 0 0 0 0 0 0 0 0 0 0
17 18 19 21 23 23 22 18 13 11 12 14 12 10 10 10 10 9 9 8 6 3 1 1 1 1 1 1 2 1 0 0 0 0 0 0 0 0 0 0 0 0 0
16 16 17 18 20 20 19 18 16 13 12 12 12 11 11 11 11 10 10 9 7 3 0 0 0 0 0 0 0 0 0 0 0 0 0 0 0 0 0 0 0 0 0
15 16 16 16 17 17 18 18 17 15 12 11 11 11 11 11 11 9 9 8 7 4 1 1 0 0 0 1 1 1 1 1 1 1 0 0 0 0 0 0 0 0 0
12 14 15 16 16 17 18 18 18 17 14 11 10 10 10 10 9 8 8 8 7 6 4 2 1 1 1 1 2 2 3 4 3 2 1 1 1 1 1 1 1 0 0
8 10 13 14 16 18 18 18 18 18 16 13 11 10 9 8 7 7 7 8 9 8 6 4 3 2 1 1 1 1 3 4 4 3 2 2 2 2 2 2 2 1 0
4 7 10 13 15 16 16 15 15 16 15 13 12 11 9 7 6 5 6 8 9 9 8 7 6 4 3 2 2 1 1 2 2 2 2 2 2 2 3 3 2 1 0
4 6 9 12 14 15 14 12 12 12 13 13 13 11 9 7 5 3 3 6 9 10 9 9 8 6 4 3 3 3 2 1 1 1 1 1 1 1 1 2 2 1 0
6 7 9 11 13 13 12 11 10 10 11 12 12 11 9 7 4 1 2 6 9 10 10 9 8 6 4 3 4 3 3 2 1 1 0 0 0 0 0 1 1 1 1
6 7 8 10 12 13 11 10 10 10 10 10 10 9 8 6 3 1 1 5 9 9 9 8 6 4 3 3 3 3 3 3 3 2 1 1 1 0 0 0 1 2 2
5 6 7 10 12 12 11 11 11 11 10 10 9 8 7 5 3 1 1 4 7 8 7 5 4 3 2 2 2 3 3 3 3 3 3 2 2 1 1 0 1 2 2
3 5 7 9 11 11 10 11 11 11 10 10 9 9 7 4 2 1 0 1 4 5 4 3 3 2 1 0 1 2 3 3 3 3 3 2 2 2 1 1 1 1 1
4 5 6 7 9 10 10 10 10 10 10 10 10 9 8 5 2 1 0 0 1 1 1 1 2 1 0 0 0 1 1 3 3 3 1 1 1 1 1 1 1 0 0
5 6 6 6 7 8 9 9 9 9 9 9 9 9 7 5 2 1 0 0 0 0 0 0 0 0 0 0 0 0 1 2 3 2 1 0 0 0 0 0 0 0 0
5 5 6 6 7 7 7 7 7 7 7 6 6 6 5 3 2 1 0 0 0 0 0 0 0 0 0 0 0 0 0 1 2 1 0 0 0 0 0 0 0 0 0
4 4 5 5 6 6 6 5 5 5 4 3 3 3 2 1 1 0 0 0 0 0 0 0 0 0 0 1 1 1 0 1 1 1 0 0 0 0 0 0 0 0 0
3 3 2 2 3 4 4 4 4 3 2 1 1 1 1 0 0 0 0 0 0 0 0 0 0 0 0 1 2 1 1 2 2 1 0 0 0 0 0 0 0 0 0
1 1 0 0 1 1 1 2 2 2 1 0 0 0 0 0 0 0 0 0 0 0 0 0 0 0 0 0 1 1 1 2 2 1 0 0 0 0 0 0 0 0 0
0 0 0 0 0 0 0 1 1 1 1 0 0 0 0 0 0 0 0 0 0 0 0 0 0 0 0 0 0 0 0 1 1 0 0 0 0 0 0 0 0 0 0
1 0 0 0 0 0 0 0 0 0 0 0 0 0 0 0 0 0 0 0 0 0 0 0 0 0 0 0 0 0 0 0 0 0 0 0 0 0 0 0 0 0 0
2 1 0 0 0 0 0 0 0 0 0 0 0 0 0 0 0 0 0 0 0 0 0 0 0 0 0 0 0 0 0 0 0 0 0 0 0 0 0 0 0 0 0
3 2 1 0 0 0 0 0 0 0 0 0 0 0 0 0 0 0 0 0 0 0 0 0 0 0 0 0 0 0 0 0 0 0 0 0 0 0 0 0 0 0 0
3 3 2 1 0 0 0 0 0 0 0 0 0 0 0 0 0 0 0 0 0 0 0 0 0 0 0 0 0 0 0 0 0 0 0 0 0 0 0 0 0 0 0
1 2 3 2 1 0 0 0 0 0 0 0 0 0 0 0 0 0 0 0 0 0 0 0 0 0 0 0 0 0 0 0 0 0 0 0 0 0 0 0 0 0 0
0 1 2 2 1 0 0 0 0 0 0 0 0 0 0 0 0 0 0 0 0 0 0 0 0 0 0 0 0 0 0 0 0 0 0 0 0 0 0 0 0 0 0
0 0 1 2 1 0 0 0 0 0 0 0 0 0 0 0 0 0 0 0 0 0 0 0 0 0 0 0 0 0 0 0 0 0 0 0 0 0 0 0 0 0 0
Wind_Speed
3 2 2 2 2 1 1 2 2 2 2 3 3 3 3 2 2 2 2 1 1 0 1 1 1 1 1 1 1 1 1 2 2 1 1 0 1 1 1 1 2 2 3
3 3 2 2 2 2 2 2 1 2 2 4 3 3 3 3 2 3 2 2 2 2 1 1 1 1 1 1 1 1 1 1 2 2 1 0 1 2 2 2 2 2 2
3 3 2 2 1 2 2 2 1 1 2 2 3 3 3 3 3 3 3 3 2 2 2 2 2 1 1 0 1 1 1 1 1 2 1 0 0 0 0 1 1 1 2
2 3 3 3 3 3 3 2 2 2 2 2 2 3 3 3 3 3 3 2 2 2 2 2 2 2 2 2 1 1 1 0 1 1 1 0 0 0 1 0 1 1 1
2 2 2 2 2 2 2 2 2 2 2 2 2 2 2 2 2 3 3 3 3 2 1 1 1 2 3 2 2 2 2 1 1 1 1 0 1 0 1 1 1 1 1
2 2 1 1 1 1 1 2 2 2 2 1 2 2 1 1 2 3 3 3 3 3 2 1 1 1 1 2 2 3 3 3 2 2 1 2 2 2 2 2 1 0 2
2 2 2 2 1 1 1 1 1 2 2 2 2 2 1 1 2 3 3 3 3 3 3 2 1 1 1 1 1 1 0 1 3 4 3 3 3 3 3 2 2 2 3
2 1 1 2 2 1 1 1 1 1 2 2 2 2 2 1 2 2 3 2 2 2 3 3 3 2 1 2 2 1 1 1 1 2 3 3 3 3 3 3 3 2 2
2 2 2 2 2 2 2 2 2 2 1 2 2 2 2 2 2 2 3 2 2 2 2 2 3 3 2 4 3 1 0 2 1 1 2 2 2 2 2 1 1 1 1
2 2 2 2 2 2 2 2 1 1 2 2 2 2 2 2 2 2 3 2 2 2 1 1 3 3 3 5 3 2 1 2 1 1 2 2 2 2 2 2 3 2 2
1 1 1 2 2 2 2 1 1 1 1 1 1 2 2 3 2 3 4 3 3 2 2 2 2 4 4 5 4 3 4 3 1 1 1 2 2 2 2 2 3 3 3
1 1 1 1 2 1 1 1 1 1 1 1 1 1 2 2 2 3 4 4 4 3 3 3 3 4 4 4 4 4 3 2 1 0 0 1 2 2 2 2 3 4 4
1 1 1 1 1 1 2 2 1 1 2 2 2 2 2 2 1 3 4 3 3 3 3 3 3 3 3 3 3 3 2 1 1 1 2 2 3 3 2 2 2 2 3
2 1 1 1 1 0 0 1 1 2 2 2 3 3 2 2 2 1 1 2 2 2 1 2 2 2 1 1 1 1 2 2 2 2 3 3 2 1 2 1 1 1 1
1 2 1 1 1 1 1 1 2 3 3 4 3 3 3 3 4 4 3 2 2 2 1 0 0 0 0 1 1 1 2 2 2 2 2 2 2 2 2 1 1 0 1
1 1 2 1 1 1 1 1 3 1 2 3 3 3 3 4 4 4 4 4 3 3 2 1 2 2 2 2 2 2 2 2 3 2 2 2 2 2 2 1 1 0 1
2 2 2 1 2 1 1 1 1 3 4 2 1 2 3 3 3 4 3 2 2 4 2 2 2 3 3 3 3 3 3 3 2 2 2 2 2 2 2 1 1 1 2
1 2 2 2 2 2 2 2 2 1 0 2 2 2 1 2 3 3 3 3 1 1 1 2 2 2 3 2 2 2 2 2 2 2 2 2 2 2 2 2 2 2 2
1 1 1 1 1 2 1 1 1 1 1 1 1 2 1 1 1 2 3 2 2 2 2 2 2 2 2 2 2 2 2 2 2 2 2 2 2 1 2 2 2 3 2
1 2 1 0 1 1 1 1 1 1 1 1 1 1 0 2 1 1 1 1 2 2 2 2 2 2 2 2 2 2 2 2 2 2 2 2 2 1 2 3 2 2 2
1 1 1 0 1 1 1 2 2 2 2 2 2 2 3 2 2 2 2 2 3 3 3 2 2 2 2 2 2 2 2 2 2 2 2 2 2 2 2 2 2 2 2
1 1 1 1 1 1 1 2 2 2 2 3 2 2 3 2 2 2 2 3 3 2 2 2 2 2 2 2 2 3 2 2 2 2 2 1 1 2 1 2 2 2 2
1 1 1 1 1 2 1 1 1 2 2 2 2 2 2 2 3 3 3 3 2 2 1 1 2 1 1 1 2 3 3 3 3 3 2 2 1 1 1 2 2 2 2
1 1 1 1 1 1 1 1 2 2 2 2 2 2 2 3 3 3 3 2 2 2 2 1 1 2 1 1 0 1 1 2 2 2 3 2 2 1 1 1 1 1 2
1 1 0 0 0 0 1 1 1 1 2 2 2 2 2 2 2 2 2 2 2 2 2 2 1 1 1 1 1 1 1 2 2 1 1 2 1 1 1 1 1 1 1
1 1 0 0 0 1 1 1 1 1 2 2 2 2 2 2 2 2 2 2 2 2 2 2 2 2 2 2 2 2 2 1 1 1 1 2 1 1 1 1 1 1 1
Wind_Direction
177 185 171 177 179 167 185 217 209 190 169 160 160 156 159 163 161 151 162 147 152 225 229 177 220 203 161 173 157 145 147 146 174 254 251 227 165 175 169 187 200 206 214
179 174 182 176 168 180 205 231 218 188 172 168 161 159 168 168 169 169 179 177 176 200 236 210 235 207 182 174 149 156 176 173 170 205 245 223 202 200 185 199 214 214 220
161 160 163 165 180 200 210 219 202 182 161 153 155 167 176 180 183 190 187 186 192 205 214 216 222 166 171 195 161 175 203 182 167 172 214 212 243 194 114 258 248 278 245
153 153 167 191 202 209 209 192 164 164 175 169 165 174 184 187 190 196 188 189 192 199 209 207 204 186 193 195 191 202 165 113 120 150 175 172 257 300 108 221 309 303 268
138 147 182 202 203 203 202 187 159 164 187 181 165 174 193 192 204 195 193 190 190 196 204 202 204 183 180 188 189 191 168 166 156 155 187 183 253 171 215 224 241 296 300
129 162 177 161 162 180 188 163 145 159 185 161 173 174 185 229 213 188 182 187 186 185 187 201 206 192 173 176 178 172 172 176 185 187 208 210 226 216 205 190 178 117 287
126 139 140 141 142 171 168 137 152 185 190 181 182 160 191 228 182 175 179 179 179 187 190 190 199 206 178 164 137 104 81 179 182 184 193 218 218 211 190 200 203 203 229
143 142 138 138 146 149 132 138 161 168 165 183 193 185 186 234 200 168 156 167 174 190 194 188 182 202 192 145 128 94 347 306 249 199 196 219 221 208 193 200 208 223 266
156 174 182 163 156 149 154 175 183 177 198 209 204 195 196 243 230 188 161 163 172 203 209 194 185 188 190 150 139 145 310 313 310 188 206 233 242 236 209 146 158 151 270
199 196 182 165 157 165 174 191 201 185 206 212 217 212 204 229 236 205 171 164 175 215 235 230 205 192 189 167 159 161 201 261 287 320 318 312 298 281 240 194 188 189 219
204 179 176 166 161 174 175 180 174 177 175 202 229 241 226 225 218 202 186 178 189 196 214 236 233 203 197 190 184 187 213 219 218 231 280 300 308 299 272 231 210 196 206
149 156 191 193 192 182 174 202 202 178 191 221 229 267 261 235 209 212 202 198 189 182 211 224 220 212 214 205 202 211 218 202 143 104 297 291 285 279 272 257 240 232 225
157 192 208 208 202 202 195 207 215 206 208 218 211 227 257 256 232 220 222 218 204 195 213 220 220 215 214 209 217 217 200 170 157 200 247 258 256 255 264 275 282 267 270
174 215 218 196 220 236 221 207 199 209 215 215 209 219 237 245 235 220 222 225 230 227 237 249 250 229 213 228 226 226 207 192 190 215 241 259 275 290 280 264 258 265 294
184 211 226 206 198 203 251 245 233 228 212 205 213 211 209 230 239 218 195 198 206 214 183 101 8 310 279 275 248 234 227 210 215 226 230 255 275 279 278 282 265 232 224
190 224 230 219 202 196 188 326 351 336 279 238 219 206 221 224 209 200 211 211 202 181 152 173 207 216 222 229 230 236 228 220 219 216 223 234 243 253 274 297 307 228 251
194 219 222 213 209 215 203 186 295 350 5 356 268 201 191 195 196 202 203 192 169 154 158 205 218 225 229 229 229 228 228 226 211 208 219 228 233 246 255 265 267 268 265
201 226 233 220 217 219 213 200 188 185 292 330 320 271 193 169 178 185 160 116 90 158 198 214 231 231 230 229 228 231 229 215 202 207 215 231 232 233 247 252 249 245 256
209 229 231 212 210 208 203 197 189 192 200 244 310 329 320 95 101 117 128 137 199 220 221 225 237 239 232 224 222 219 208 202 201 201 212 221 226 224 244 255 254 256 249
257 270 271 211 215 198 187 190 194 197 203 209 223 237 123 90 81 81 167 204 223 235 227 223 235 239 235 226 218 209 199 201 197 204 220 226 227 223 233 246 247 248 244
244 277 306 28 206 209 206 210 215 212 213 215 224 217 167 169 196 205 211 221 223 229 226 223 232 240 238 230 213 200 192 199 206 209 216 226 230 238 244 246 249 242 245
214 229 223 223 233 228 224 219 217 216 212 210 224 222 189 180 204 222 225 231 231 229 219 208 223 240 237 222 200 186 187 193 203 209 217 229 244 247 248 250 254 252 246
208 228 241 242 234 239 242 236 220 216 216 214 213 208 197 213 216 215 220 225 227 223 228 217 216 241 245 228 206 190 186 195 203 199 196 211 237 252 248 246 244 251 254
205 214 226 272 276 263 250 241 233 224 217 216 211 207 204 208 217 224 222 216 214 218 211 209 220 230 222 208 206 208 198 189 187 191 189 196 219 240 243 243 237 220 224
208 208 182 174 299 284 267 259 256 254 241 229 218 212 212 211 217 229 228 211 208 221 227 214 217 219 198 178 173 181 165 146 143 151 167 179 202 219 225 233 229 225 217
213 214 195 180 282 264 253 262 264 257 256 248 236 217 212 211 216 220 222 221 224 227 230 223 212 202 198 194 191 166 143 134 135 147 158 160 177 210 218 231 222 208 212